Location: Newark
(47.4417°N, 1.1394°W)
Time: 19:28:37
(UTC+00:00)

Envisat - Pass Details

Date: 24 November 2019
Orbit: 764 x 766 km, 98.1° (Epoch: 05 December)

Event Time Altitude Azimuth Distance (km) Brightness Sun altitude
Rises 19:10:36 0° 205° (SSW) 3,220 6.5 -28.3°
Reaches altitude 10° 19:13:28 10° 221° (SW) 2,299 5.9 -28.8°
Maximum altitude 19:17:13 21° 269° (W) 1,686 5.5 -29.4°
Drops below altitude 10° 19:21:00 10° 317° (NW) 2,311 6.0 -30.1°
Sets 19:23:54 0° 334° (NNW) 3,243 6.6 -30.5°
